contact:dominique.lefevre@mio.osupytheas.fr, maurice.libes@osupytheas.fr, didier.mallarino@osupytheas.fr
Project:EMSO http://www.emso-fr.org/EMSO-France
Depth: 2436.0 m
Title:EMSO Ligure Ouest : Data MII capteur CSTAR
DateTime,Latitude,Longitude,Instrument_Serial,Reference_Counts,Signal_Counts,Corrected_Signal_raw_counts,Calculated_Beam_c_inverse_meters,Internal_thermistor_counts
DateTime,Latitude,Longitude,Instrument_Serial,Reference_Counts,Signal_Counts,Corrected_Signal_raw_counts,Calculated_Beam_c_inverse_meters,Internal_thermistor_counts
2021-05-26T00:00:56,42.805,6.029,CST-1368DR,5444,7584,14952,0.174,551
2021-05-26T00:03:58,42.805,6.029,CST-1368DR,5444,7584,14952,0.174,551
2021-05-26T00:07:00,42.805,6.029,CST-1368DR,5445,7587,14955,0.173,551
2021-05-26T00:10:01,42.805,6.029,CST-1368DR,5446,7587,14953,0.174,550
2021-05-26T00:13:03,42.805,6.029,CST-1368DR,5447,7591,14957,0.172,551
2021-05-26T00:16:04,42.805,6.029,CST-1368DR,5447,7592,14959,0.172,551
2021-05-26T00:19:06,42.805,6.029,CST-1368DR,5448,7593,14958,0.172,551
2021-05-26T00:22:08,42.805,6.029,CST-1368DR,5449,7593,14956,0.173,551
2021-05-26T00:25:09,42.805,6.029,CST-1368DR,5449,7594,14959,0.172,550
2021-05-26T00:28:11,42.805,6.029,CST-1368DR,5450,7594,14955,0.173,551
2021-05-26T00:31:12,42.805,6.029,CST-1368DR,5450,7594,14956,0.173,551
2021-05-26T00:34:14,42.805,6.029,CST-1368DR,5451,7597,14959,0.172,551
2021-05-26T00:37:15,42.805,6.029,CST-1368DR,5452,7596,14954,0.173,551
2021-05-26T00:40:17,42.805,6.029,CST-1368DR,5452,7598,14958,0.172,551
2021-05-26T00:43:19,42.805,6.029,CST-1368DR,5453,7599,14958,0.172,551
2021-05-26T00:46:20,42.805,6.029,CST-1368DR,5454,7599,14954,0.173,551
2021-05-26T00:49:22,42.805,6.029,CST-1368DR,5454,7602,14960,0.172,551
2021-05-26T00:52:23,42.805,6.029,CST-1368DR,5455,7602,14959,0.172,551
2021-05-26T00:55:25,42.805,6.029,CST-1368DR,5456,7605,14961,0.171,551
2021-05-26T00:58:27,42.805,6.029,CST-1368DR,5457,7608,14964,0.171,551
2021-05-26T01:01:28,42.805,6.029,CST-1368DR,5458,7609,14964,0.171,551
2021-05-26T01:04:30,42.805,6.029,CST-1368DR,5459,7609,14961,0.171,551
2021-05-26T01:07:31,42.805,6.029,CST-1368DR,5461,7611,14961,0.171,551
2021-05-26T01:10:33,42.805,6.029,CST-1368DR,5462,7615,14965,0.170,551
2021-05-26T01:13:34,42.805,6.029,CST-1368DR,5463,7616,14966,0.170,551
2021-05-26T01:16:36,42.805,6.029,CST-1368DR,5464,7618,14967,0.170,551
2021-05-26T01:19:38,42.805,6.029,CST-1368DR,5465,7619,14965,0.170,550
2021-05-26T01:22:39,42.805,6.029,CST-1368DR,5466,7619,14963,0.171,551
2021-05-26T01:25:41,42.805,6.029,CST-1368DR,5467,7623,14968,0.170,551
2021-05-26T01:28:42,42.805,6.029,CST-1368DR,5467,7623,14968,0.170,551
2021-05-26T01:31:44,42.805,6.029,CST-1368DR,5468,7621,14962,0.171,551
2021-05-26T01:34:45,42.805,6.029,CST-1368DR,5469,7625,14967,0.170,551
2021-05-26T01:37:47,42.805,6.029,CST-1368DR,5470,7627,14969,0.169,551
2021-05-26T01:40:49,42.805,6.029,CST-1368DR,5471,7627,14967,0.170,551
2021-05-26T01:43:50,42.805,6.029,CST-1368DR,5472,7629,14967,0.170,551
2021-05-26T01:46:52,42.805,6.029,CST-1368DR,5472,7630,14969,0.169,551
2021-05-26T01:49:53,42.805,6.029,CST-1368DR,5473,7631,14968,0.170,551
2021-05-26T01:52:55,42.805,6.029,CST-1368DR,5474,7630,14964,0.171,551
2021-05-26T01:55:57,42.805,6.029,CST-1368DR,5474,7632,14968,0.170,551
2021-05-26T01:58:58,42.805,6.029,CST-1368DR,5475,7633,14968,0.170,551
2021-05-26T02:02:00,42.805,6.029,CST-1368DR,5475,7634,14970,0.169,551
2021-05-26T02:05:01,42.805,6.029,CST-1368DR,5476,7635,14969,0.169,551
2021-05-26T02:08:03,42.805,6.029,CST-1368DR,5476,7635,14968,0.170,551
2021-05-26T02:11:04,42.805,6.029,CST-1368DR,5476,7636,14970,0.169,551
2021-05-26T02:14:06,42.805,6.029,CST-1368DR,5477,7636,14968,0.170,551
2021-05-26T02:17:08,42.805,6.029,CST-1368DR,5477,7637,14969,0.169,551
2021-05-26T02:20:09,42.805,6.029,CST-1368DR,5477,7634,14965,0.170,551
2021-05-26T02:23:11,42.805,6.029,CST-1368DR,5478,7638,14969,0.169,551
2021-05-26T02:26:12,42.805,6.029,CST-1368DR,5478,7637,14968,0.170,551
2021-05-26T02:29:14,42.805,6.029,CST-1368DR,5479,7639,14969,0.169,551
2021-05-26T02:32:15,42.805,6.029,CST-1368DR,5479,7639,14968,0.170,551
2021-05-26T02:35:17,42.805,6.029,CST-1368DR,5479,7639,14969,0.169,551
2021-05-26T02:38:19,42.805,6.029,CST-1368DR,5480,7641,14970,0.169,551
2021-05-26T02:41:20,42.805,6.029,CST-1368DR,5480,7639,14966,0.170,551
2021-05-26T02:44:22,42.805,6.029,CST-1368DR,5480,7641,14971,0.169,551
2021-05-26T02:47:23,42.805,6.029,CST-1368DR,5481,7642,14969,0.169,551
2021-05-26T02:50:25,42.805,6.029,CST-1368DR,5481,7643,14972,0.168,551
2021-05-26T02:53:27,42.805,6.029,CST-1368DR,5482,7645,14972,0.168,551
2021-05-26T02:56:28,42.805,6.029,CST-1368DR,5483,7646,14971,0.169,551
2021-05-26T02:59:30,42.805,6.029,CST-1368DR,5483,7647,14974,0.168,551
2021-05-26T03:02:31,42.805,6.029,CST-1368DR,5484,7646,14970,0.169,551
2021-05-26T03:05:33,42.805,6.029,CST-1368DR,5485,7648,14971,0.169,551
2021-05-26T03:08:34,42.805,6.029,CST-1368DR,5486,7649,14971,0.169,551
2021-05-26T03:11:36,42.805,6.029,CST-1368DR,5487,7651,14971,0.169,551
2021-05-26T03:14:38,42.805,6.029,CST-1368DR,5488,7652,14972,0.168,551
2021-05-26T03:17:39,42.805,6.029,CST-1368DR,5488,7652,14971,0.169,551
2021-05-26T03:20:41,42.805,6.029,CST-1368DR,5489,7652,14969,0.169,551
2021-05-26T03:23:42,42.805,6.029,CST-1368DR,5489,7655,14973,0.168,551
2021-05-26T03:26:44,42.805,6.029,CST-1368DR,5490,7654,14970,0.169,551
2021-05-26T03:29:46,42.805,6.029,CST-1368DR,5491,7657,14973,0.168,551
2021-05-26T03:32:47,42.805,6.029,CST-1368DR,5491,7657,14973,0.168,551
2021-05-26T03:35:49,42.805,6.029,CST-1368DR,5492,7658,14972,0.168,551
2021-05-26T03:38:50,42.805,6.029,CST-1368DR,5493,7659,14972,0.168,551
2021-05-26T03:41:52,42.805,6.029,CST-1368DR,5493,7660,14974,0.168,551
2021-05-26T03:44:53,42.805,6.029,CST-1368DR,5494,7651,14954,0.173,551
2021-05-26T03:47:55,42.805,6.029,CST-1368DR,5494,7660,14972,0.168,551
2021-05-26T03:50:57,42.805,6.029,CST-1368DR,5495,7661,14970,0.169,551
2021-05-26T03:53:58,42.805,6.029,CST-1368DR,5496,7663,14972,0.168,551
2021-05-26T03:57:00,42.805,6.029,CST-1368DR,5496,7664,14973,0.168,551
2021-05-26T04:00:01,42.805,6.029,CST-1368DR,5497,7664,14972,0.168,551
2021-05-26T04:03:03,42.805,6.029,CST-1368DR,5497,7666,14976,0.167,551
2021-05-26T04:06:05,42.805,6.029,CST-1368DR,5498,7663,14967,0.170,551
2021-05-26T04:09:06,42.805,6.029,CST-1368DR,5498,7665,14970,0.169,551
2021-05-26T04:12:08,42.805,6.029,CST-1368DR,5499,7667,14972,0.168,550
2021-05-26T04:15:09,42.805,6.029,CST-1368DR,5500,7669,14973,0.168,551
2021-05-26T04:18:11,42.805,6.029,CST-1368DR,5500,7670,14975,0.168,551
2021-05-26T04:21:12,42.805,6.029,CST-1368DR,5501,7670,14973,0.168,551
2021-05-26T04:24:14,42.805,6.029,CST-1368DR,5501,7671,14975,0.168,551
2021-05-26T04:27:16,42.805,6.029,CST-1368DR,5502,7673,14975,0.168,551
2021-05-26T04:30:17,42.805,6.029,CST-1368DR,5502,7674,14977,0.167,551
2021-05-26T04:33:19,42.805,6.029,CST-1368DR,5503,7674,14974,0.168,551
2021-05-26T04:36:20,42.805,6.029,CST-1368DR,5503,7674,14976,0.167,551
2021-05-26T04:39:22,42.805,6.029,CST-1368DR,5504,7675,14974,0.168,551
2021-05-26T04:42:23,42.805,6.029,CST-1368DR,5504,7676,14977,0.167,551
2021-05-26T04:45:25,42.805,6.029,CST-1368DR,5505,7677,14976,0.167,551
2021-05-26T04:48:27,42.805,6.029,CST-1368DR,5505,7677,14977,0.167,551
2021-05-26T04:51:28,42.805,6.029,CST-1368DR,5506,7678,14975,0.168,551
2021-05-26T04:54:30,42.805,6.029,CST-1368DR,5506,7679,14978,0.167,551
2021-05-26T04:57:31,42.805,6.029,CST-1368DR,5506,7679,14977,0.167,551
2021-05-26T05:00:33,42.805,6.029,CST-1368DR,5507,7681,14978,0.167,551
2021-05-26T05:03:35,42.805,6.029,CST-1368DR,5507,7680,14977,0.167,551
2021-05-26T05:06:36,42.805,6.029,CST-1368DR,5508,7680,14974,0.168,551
2021-05-26T05:09:38,42.805,6.029,CST-1368DR,5509,7683,14977,0.167,551
2021-05-26T05:12:39,42.805,6.029,CST-1368DR,5510,7684,14977,0.167,551
2021-05-26T05:15:41,42.805,6.029,CST-1368DR,5511,7685,14976,0.167,551
2021-05-26T05:18:42,42.805,6.029,CST-1368DR,5511,7685,14976,0.167,551
2021-05-26T05:21:44,42.805,6.029,CST-1368DR,5512,7686,14975,0.168,551
2021-05-26T05:24:46,42.805,6.029,CST-1368DR,5512,7686,14975,0.168,551
2021-05-26T05:27:47,42.805,6.029,CST-1368DR,5513,7686,14973,0.168,551
2021-05-26T05:30:49,42.805,6.029,CST-1368DR,5513,7686,14973,0.168,551
2021-05-26T05:33:50,42.805,6.029,CST-1368DR,5513,7688,14976,0.167,551
2021-05-26T05:36:52,42.805,6.029,CST-1368DR,5514,7688,14975,0.168,551
2021-05-26T05:39:54,42.805,6.029,CST-1368DR,5514,7688,14975,0.168,551
2021-05-26T05:42:55,42.805,6.029,CST-1368DR,5515,7691,14977,0.167,551
2021-05-26T05:45:57,42.805,6.029,CST-1368DR,5515,7691,14978,0.167,551
2021-05-26T05:48:58,42.805,6.029,CST-1368DR,5515,7692,14979,0.167,551
2021-05-26T05:52:00,42.805,6.029,CST-1368DR,5516,7692,14976,0.167,551
2021-05-26T05:55:01,42.805,6.029,CST-1368DR,5516,7692,14977,0.167,551
2021-05-26T05:58:03,42.805,6.029,CST-1368DR,5517,7692,14975,0.168,551
2021-05-26T06:01:05,42.805,6.029,CST-1368DR,5517,7693,14977,0.167,551
2021-05-26T06:04:06,42.805,6.029,CST-1368DR,5517,7694,14978,0.167,551
2021-05-26T06:07:08,42.805,6.029,CST-1368DR,5518,7695,14978,0.167,551
2021-05-26T06:10:09,42.805,6.029,CST-1368DR,5518,7696,14979,0.167,551
2021-05-26T06:13:11,42.805,6.029,CST-1368DR,5518,7695,14978,0.167,551
2021-05-26T06:16:12,42.805,6.029,CST-1368DR,5519,7696,14976,0.167,551
2021-05-26T06:19:14,42.805,6.029,CST-1368DR,5519,7695,14975,0.168,551
2021-05-26T06:22:16,42.805,6.029,CST-1368DR,5519,7697,14979,0.167,551
2021-05-26T06:25:17,42.805,6.029,CST-1368DR,5519,7697,14978,0.167,551
2021-05-26T06:28:19,42.805,6.029,CST-1368DR,5520,7698,14978,0.167,551
2021-05-26T06:31:20,42.805,6.029,CST-1368DR,5520,7699,14979,0.167,551
2021-05-26T06:34:22,42.805,6.029,CST-1368DR,5520,7697,14976,0.167,551
2021-05-26T06:37:24,42.805,6.029,CST-1368DR,5520,7699,14979,0.167,551
2021-05-26T06:40:25,42.805,6.029,CST-1368DR,5520,7698,14979,0.167,551
2021-05-26T06:43:27,42.805,6.029,CST-1368DR,5519,7695,14975,0.168,551
2021-05-26T06:46:28,42.805,6.029,CST-1368DR,5520,7698,14977,0.167,551
2021-05-26T06:49:30,42.805,6.029,CST-1368DR,5520,7698,14977,0.167,551
2021-05-26T06:52:31,42.805,6.029,CST-1368DR,5520,7698,14979,0.167,551
2021-05-26T06:55:33,42.805,6.029,CST-1368DR,5520,7697,14977,0.167,551
2021-05-26T06:58:35,42.805,6.029,CST-1368DR,5520,7699,14980,0.166,551
2021-05-26T07:01:36,42.805,6.029,CST-1368DR,5521,7698,14976,0.167,551
2021-05-26T07:04:38,42.805,6.029,CST-1368DR,5521,7700,14979,0.167,551
2021-05-26T07:07:39,42.805,6.029,CST-1368DR,5521,7700,14979,0.167,551
2021-05-26T07:10:41,42.805,6.029,CST-1368DR,5521,7700,14980,0.166,551
2021-05-26T07:13:42,42.805,6.029,CST-1368DR,5521,7695,14969,0.169,551
2021-05-26T07:16:44,42.805,6.029,CST-1368DR,5522,7690,14958,0.172,551
2021-05-26T07:19:46,42.805,6.029,CST-1368DR,5522,7697,14971,0.169,551
2021-05-26T07:22:47,42.805,6.029,CST-1368DR,5522,7699,14975,0.168,551
2021-05-26T07:25:49,42.805,6.029,CST-1368DR,5522,7701,14978,0.167,551
2021-05-26T07:28:50,42.805,6.029,CST-1368DR,5522,7701,14979,0.167,551
2021-05-26T07:31:52,42.805,6.029,CST-1368DR,5522,7700,14978,0.167,551
2021-05-26T07:34:54,42.805,6.029,CST-1368DR,5523,7702,14977,0.167,551
2021-05-26T07:37:55,42.805,6.029,CST-1368DR,5523,7702,14978,0.167,551
2021-05-26T07:40:57,42.805,6.029,CST-1368DR,5523,7702,14978,0.167,551
2021-05-26T07:43:58,42.805,6.029,CST-1368DR,5523,7703,14979,0.167,551
2021-05-26T07:47:00,42.805,6.029,CST-1368DR,5523,7701,14977,0.167,551
2021-05-26T07:50:01,42.805,6.029,CST-1368DR,5523,7703,14980,0.166,551
2021-05-26T07:53:03,42.805,6.029,CST-1368DR,5523,7703,14980,0.166,551
2021-05-26T07:56:05,42.805,6.029,CST-1368DR,5523,7702,14979,0.167,551
2021-05-26T07:59:06,42.805,6.029,CST-1368DR,5523,7702,14978,0.167,551
2021-05-26T08:02:08,42.805,6.029,CST-1368DR,5523,7702,14977,0.167,551
2021-05-26T08:05:09,42.805,6.029,CST-1368DR,5523,7702,14978,0.167,551
2021-05-26T08:08:11,42.805,6.029,CST-1368DR,5523,7703,14980,0.166,550
2021-05-26T08:11:13,42.805,6.029,CST-1368DR,5523,7703,14979,0.167,551
2021-05-26T08:14:14,42.805,6.029,CST-1368DR,5523,7702,14977,0.167,551
2021-05-26T08:17:16,42.805,6.029,CST-1368DR,5523,7699,14972,0.168,551
2021-05-26T08:20:17,42.805,6.029,CST-1368DR,5523,7700,14975,0.168,551
2021-05-26T08:23:19,42.805,6.029,CST-1368DR,5523,7702,14977,0.167,551
2021-05-26T08:26:20,42.805,6.029,CST-1368DR,5523,7701,14976,0.167,551
2021-05-26T08:29:22,42.805,6.029,CST-1368DR,5523,7701,14977,0.167,551
2021-05-26T08:32:24,42.805,6.029,CST-1368DR,5523,7702,14977,0.167,551
2021-05-26T08:35:25,42.805,6.029,CST-1368DR,5523,7702,14979,0.167,551
2021-05-26T08:38:27,42.805,6.029,CST-1368DR,5523,7701,14975,0.168,551
2021-05-26T08:41:28,42.805,6.029,CST-1368DR,5523,7702,14977,0.167,551
2021-05-26T08:44:30,42.805,6.029,CST-1368DR,5523,7702,14978,0.167,551
2021-05-26T08:47:31,42.805,6.029,CST-1368DR,5523,7702,14978,0.167,551
2021-05-26T08:50:33,42.805,6.029,CST-1368DR,5523,7702,14979,0.167,551
2021-05-26T08:53:35,42.805,6.029,CST-1368DR,5524,7702,14976,0.167,551
2021-05-26T08:56:36,42.805,6.029,CST-1368DR,5524,7702,14975,0.168,551
2021-05-26T08:59:38,42.805,6.029,CST-1368DR,5524,7702,14976,0.167,551
2021-05-26T09:02:39,42.805,6.029,CST-1368DR,5524,7701,14973,0.168,551
2021-05-26T09:05:41,42.805,6.029,CST-1368DR,5524,7699,14970,0.169,551
2021-05-26T09:08:43,42.805,6.029,CST-1368DR,5524,7703,14977,0.167,551
2021-05-26T09:11:44,42.805,6.029,CST-1368DR,5524,7703,14978,0.167,551
2021-05-26T09:14:46,42.805,6.029,CST-1368DR,5524,7703,14977,0.167,551
2021-05-26T09:17:47,42.805,6.029,CST-1368DR,5524,7704,14979,0.167,551
2021-05-26T09:20:49,42.805,6.029,CST-1368DR,5524,7702,14975,0.168,551
2021-05-26T09:23:50,42.805,6.029,CST-1368DR,5524,7703,14977,0.167,551
2021-05-26T09:26:52,42.805,6.029,CST-1368DR,5524,7701,14973,0.168,551
2021-05-26T09:29:54,42.805,6.029,CST-1368DR,5524,7704,14979,0.167,551
2021-05-26T09:32:55,42.805,6.029,CST-1368DR,5524,7703,14978,0.167,551
2021-05-26T09:35:57,42.805,6.029,CST-1368DR,5524,7703,14977,0.167,551
2021-05-26T09:38:58,42.805,6.029,CST-1368DR,5524,7704,14979,0.167,551
2021-05-26T09:42:00,42.805,6.029,CST-1368DR,5524,7703,14978,0.167,550
2021-05-26T09:45:02,42.805,6.029,CST-1368DR,5524,7703,14977,0.167,551
2021-05-26T09:48:03,42.805,6.029,CST-1368DR,5524,7703,14978,0.167,551
2021-05-26T09:51:05,42.805,6.029,CST-1368DR,5524,7703,14977,0.167,551
2021-05-26T09:54:06,42.805,6.029,CST-1368DR,5524,7704,14979,0.167,551
2021-05-26T09:57:08,42.805,6.029,CST-1368DR,5524,7704,14980,0.166,551
2021-05-26T10:00:09,42.805,6.029,CST-1368DR,5524,7703,14977,0.167,551
2021-05-26T10:03:11,42.805,6.029,CST-1368DR,5524,7704,14979,0.167,551
2021-05-26T10:06:13,42.805,6.029,CST-1368DR,5524,7703,14978,0.167,551
2021-05-26T10:09:14,42.805,6.029,CST-1368DR,5524,7704,14980,0.166,551
2021-05-26T10:12:16,42.805,6.029,CST-1368DR,5524,7705,14981,0.166,551
2021-05-26T10:15:17,42.805,6.029,CST-1368DR,5524,7704,14979,0.167,551
2021-05-26T10:18:19,42.805,6.029,CST-1368DR,5524,7704,14980,0.166,551
2021-05-26T10:21:20,42.805,6.029,CST-1368DR,5524,7705,14982,0.166,551
2021-05-26T10:24:22,42.805,6.029,CST-1368DR,5524,7705,14981,0.166,551
2021-05-26T10:27:24,42.805,6.029,CST-1368DR,5524,7705,14982,0.166,551
2021-05-26T10:30:25,42.805,6.029,CST-1368DR,5524,7705,14981,0.166,551
2021-05-26T10:33:27,42.805,6.029,CST-1368DR,5524,7705,14982,0.166,551
2021-05-26T10:36:28,42.805,6.029,CST-1368DR,5524,7705,14982,0.166,551
2021-05-26T10:39:30,42.805,6.029,CST-1368DR,5524,7703,14978,0.167,551
2021-05-26T10:42:32,42.805,6.029,CST-1368DR,5524,7706,14983,0.166,551
2021-05-26T10:45:33,42.805,6.029,CST-1368DR,5524,7703,14978,0.167,551
2021-05-26T10:48:35,42.805,6.029,CST-1368DR,5524,7704,14980,0.166,551
2021-05-26T10:51:36,42.805,6.029,CST-1368DR,5524,7705,14982,0.166,551
2021-05-26T10:54:38,42.805,6.029,CST-1368DR,5524,7703,14978,0.167,551
2021-05-26T10:57:39,42.805,6.029,CST-1368DR,5524,7705,14982,0.166,551
2021-05-26T11:00:41,42.805,6.029,CST-1368DR,5524,7705,14981,0.166,551
2021-05-26T11:03:43,42.805,6.029,CST-1368DR,5524,7705,14982,0.166,551
2021-05-26T11:06:44,42.805,6.029,CST-1368DR,5524,7702,14976,0.167,551
2021-05-26T11:09:46,42.805,6.029,CST-1368DR,5524,7704,14980,0.166,551
2021-05-26T11:12:47,42.805,6.029,CST-1368DR,5524,7706,14983,0.166,551
2021-05-26T11:15:49,42.805,6.029,CST-1368DR,5524,7705,14982,0.166,551
2021-05-26T11:18:51,42.805,6.029,CST-1368DR,5524,7706,14983,0.166,551
2021-05-26T11:21:52,42.805,6.029,CST-1368DR,5524,7705,14982,0.166,550
2021-05-26T11:24:54,42.805,6.029,CST-1368DR,5524,7706,14983,0.166,551
2021-05-26T11:27:55,42.805,6.029,CST-1368DR,5524,7703,14977,0.167,551
2021-05-26T11:30:57,42.805,6.029,CST-1368DR,5524,7705,14982,0.166,551
2021-05-26T11:33:58,42.805,6.029,CST-1368DR,5524,7704,14980,0.166,551
2021-05-26T11:37:00,42.805,6.029,CST-1368DR,5524,7705,14982,0.166,551
2021-05-26T11:40:02,42.805,6.029,CST-1368DR,5524,7704,14980,0.166,551
2021-05-26T11:43:03,42.805,6.029,CST-1368DR,5524,7706,14984,0.165,551
2021-05-26T11:46:05,42.805,6.029,CST-1368DR,5524,7705,14982,0.166,551
2021-05-26T11:49:06,42.805,6.029,CST-1368DR,5524,7706,14983,0.166,551
2021-05-26T11:52:08,42.805,6.029,CST-1368DR,5524,7704,14980,0.166,551
2021-05-26T11:55:10,42.805,6.029,CST-1368DR,5524,7706,14984,0.165,551
2021-05-26T11:58:11,42.805,6.029,CST-1368DR,5524,7705,14982,0.166,551
2021-05-26T12:01:13,42.805,6.029,CST-1368DR,5524,7705,14982,0.166,551
2021-05-26T12:04:14,42.805,6.029,CST-1368DR,5524,7704,14979,0.167,551
2021-05-26T12:07:16,42.805,6.029,CST-1368DR,5524,7705,14981,0.166,551
2021-05-26T12:10:17,42.805,6.029,CST-1368DR,5524,7707,14985,0.165,551
2021-05-26T12:13:19,42.805,6.029,CST-1368DR,5524,7698,14967,0.170,551
2021-05-26T12:16:21,42.805,6.029,CST-1368DR,5524,7705,14982,0.166,551
2021-05-26T12:19:22,42.805,6.029,CST-1368DR,5524,7701,14973,0.168,551
2021-05-26T12:22:24,42.805,6.029,CST-1368DR,5524,7706,14984,0.165,551
2021-05-26T12:25:25,42.805,6.029,CST-1368DR,5525,7705,14979,0.167,551
2021-05-26T12:28:27,42.805,6.029,CST-1368DR,5524,7707,14985,0.165,551
2021-05-26T12:31:28,42.805,6.029,CST-1368DR,5524,7705,14981,0.166,551
2021-05-26T12:34:30,42.805,6.029,CST-1368DR,5524,7705,14981,0.166,551
2021-05-26T12:37:32,42.805,6.029,CST-1368DR,5524,7707,14985,0.165,551
2021-05-26T12:40:33,42.805,6.029,CST-1368DR,5524,7706,14983,0.166,550
2021-05-26T12:43:35,42.805,6.029,CST-1368DR,5524,7705,14981,0.166,551
2021-05-26T12:46:36,42.805,6.029,CST-1368DR,5524,7705,14982,0.166,551
2021-05-26T12:49:38,42.805,6.029,CST-1368DR,5525,7706,14980,0.166,551
2021-05-26T12:52:40,42.805,6.029,CST-1368DR,5524,7703,14977,0.167,551
2021-05-26T12:55:41,42.805,6.029,CST-1368DR,5525,7707,14982,0.166,551
2021-05-26T12:58:43,42.805,6.029,CST-1368DR,5524,7705,14982,0.166,551
2021-05-26T13:01:44,42.805,6.029,CST-1368DR,5525,7707,14982,0.166,551
2021-05-26T13:04:46,42.805,6.029,CST-1368DR,5525,7707,14982,0.166,551
2021-05-26T13:07:47,42.805,6.029,CST-1368DR,5525,7707,14983,0.166,551
2021-05-26T13:10:49,42.805,6.029,CST-1368DR,5525,7697,14964,0.171,551
2021-05-26T13:13:51,42.805,6.029,CST-1368DR,5525,7707,14983,0.166,551
2021-05-26T13:16:52,42.805,6.029,CST-1368DR,5525,7706,14981,0.166,551
2021-05-26T13:19:54,42.805,6.029,CST-1368DR,5525,7707,14983,0.166,551
2021-05-26T13:22:55,42.805,6.029,CST-1368DR,5525,7706,14982,0.166,551
2021-05-26T13:25:57,42.805,6.029,CST-1368DR,5525,7703,14975,0.168,551
2021-05-26T13:28:58,42.805,6.029,CST-1368DR,5525,7707,14983,0.166,551
2021-05-26T13:32:00,42.805,6.029,CST-1368DR,5525,7707,14983,0.166,550
2021-05-26T13:35:02,42.805,6.029,CST-1368DR,5525,7705,14979,0.167,551
2021-05-26T13:38:03,42.805,6.029,CST-1368DR,5525,7705,14980,0.166,551
2021-05-26T13:41:05,42.805,6.029,CST-1368DR,5525,7707,14983,0.166,551
2021-05-26T13:44:06,42.805,6.029,CST-1368DR,5525,7707,14983,0.166,551
2021-05-26T13:47:08,42.805,6.029,CST-1368DR,5525,7707,14983,0.166,551
2021-05-26T13:50:10,42.805,6.029,CST-1368DR,5525,7707,14983,0.166,551
2021-05-26T13:53:11,42.805,6.029,CST-1368DR,5525,7705,14979,0.167,551
2021-05-26T13:56:13,42.805,6.029,CST-1368DR,5525,7709,14986,0.165,551
2021-05-26T13:59:14,42.805,6.029,CST-1368DR,5525,7707,14983,0.166,551
2021-05-26T14:02:16,42.805,6.029,CST-1368DR,5525,7706,14982,0.166,551
2021-05-26T14:05:17,42.805,6.029,CST-1368DR,5525,7707,14983,0.166,551
2021-05-26T14:08:19,42.805,6.029,CST-1368DR,5525,7706,14981,0.166,551
2021-05-26T14:11:21,42.805,6.029,CST-1368DR,5525,7707,14983,0.166,551
2021-05-26T14:14:22,42.805,6.029,CST-1368DR,5525,7708,14984,0.165,551
2021-05-26T14:17:24,42.805,6.029,CST-1368DR,5525,7708,14984,0.165,551
2021-05-26T14:20:25,42.805,6.029,CST-1368DR,5525,7708,14985,0.165,551
2021-05-26T14:23:27,42.805,6.029,CST-1368DR,5525,7708,14985,0.165,551
2021-05-26T14:26:29,42.805,6.029,CST-1368DR,5525,7709,14987,0.164,551
2021-05-26T14:29:30,42.805,6.029,CST-1368DR,5525,7706,14980,0.166,551
2021-05-26T14:32:32,42.805,6.029,CST-1368DR,5525,7707,14983,0.166,551
2021-05-26T14:35:33,42.805,6.029,CST-1368DR,5525,7708,14985,0.165,551
2021-05-26T14:38:35,42.805,6.029,CST-1368DR,5525,7709,14986,0.165,551
2021-05-26T14:41:36,42.805,6.029,CST-1368DR,5525,7709,14986,0.165,551
2021-05-26T14:44:38,42.805,6.029,CST-1368DR,5525,7708,14985,0.165,551
2021-05-26T14:47:40,42.805,6.029,CST-1368DR,5525,7707,14983,0.166,551
2021-05-26T14:50:41,42.805,6.029,CST-1368DR,5525,7709,14987,0.164,551
2021-05-26T14:53:43,42.805,6.029,CST-1368DR,5525,7706,14981,0.166,551
2021-05-26T14:56:44,42.805,6.029,CST-1368DR,5525,7708,14985,0.165,551
2021-05-26T14:59:46,42.805,6.029,CST-1368DR,5525,7708,14984,0.165,551
2021-05-26T15:02:48,42.805,6.029,CST-1368DR,5525,7709,14987,0.164,551
2021-05-26T15:05:49,42.805,6.029,CST-1368DR,5525,7708,14985,0.165,551
2021-05-26T15:08:51,42.805,6.029,CST-1368DR,5525,7709,14986,0.165,551
2021-05-26T15:11:52,42.805,6.029,CST-1368DR,5525,7709,14986,0.165,551
2021-05-26T15:14:54,42.805,6.029,CST-1368DR,5525,7708,14985,0.165,551
2021-05-26T15:17:55,42.805,6.029,CST-1368DR,5525,7710,14988,0.164,551
2021-05-26T15:20:57,42.805,6.029,CST-1368DR,5525,7710,14989,0.164,551
2021-05-26T15:23:59,42.805,6.029,CST-1368DR,5525,7710,14988,0.164,551
2021-05-26T15:27:00,42.805,6.029,CST-1368DR,5525,7709,14986,0.165,551
2021-05-26T15:30:02,42.805,6.029,CST-1368DR,5525,7709,14986,0.165,551
2021-05-26T15:33:03,42.805,6.029,CST-1368DR,5525,7709,14987,0.164,551
2021-05-26T15:36:05,42.805,6.029,CST-1368DR,5525,7709,14986,0.165,551
2021-05-26T15:39:06,42.805,6.029,CST-1368DR,5525,7707,14983,0.166,551
2021-05-26T15:42:08,42.805,6.029,CST-1368DR,5525,7709,14987,0.164,551
2021-05-26T15:45:10,42.805,6.029,CST-1368DR,5525,7710,14988,0.164,551
2021-05-26T15:48:11,42.805,6.029,CST-1368DR,5525,7709,14987,0.164,551
2021-05-26T15:51:13,42.805,6.029,CST-1368DR,5525,7709,14987,0.164,551
2021-05-26T15:54:14,42.805,6.029,CST-1368DR,5525,7705,14980,0.166,551
2021-05-26T15:57:16,42.805,6.029,CST-1368DR,5525,7709,14986,0.165,551
2021-05-26T16:00:18,42.805,6.029,CST-1368DR,5525,7708,14985,0.165,551
2021-05-26T16:03:19,42.805,6.029,CST-1368DR,5525,7710,14988,0.164,551
2021-05-26T16:06:21,42.805,6.029,CST-1368DR,5525,7710,14989,0.164,551
2021-05-26T16:09:22,42.805,6.029,CST-1368DR,5525,7710,14988,0.164,551
2021-05-26T16:12:24,42.805,6.029,CST-1368DR,5525,7710,14988,0.164,550
2021-05-26T16:15:25,42.805,6.029,CST-1368DR,5525,7710,14988,0.164,551
2021-05-26T16:18:27,42.805,6.029,CST-1368DR,5525,7708,14985,0.165,551
2021-05-26T16:21:29,42.805,6.029,CST-1368DR,5525,7709,14986,0.165,551
2021-05-26T16:24:30,42.805,6.029,CST-1368DR,5525,7710,14988,0.164,551
2021-05-26T16:27:32,42.805,6.029,CST-1368DR,5525,7711,14990,0.164,551
2021-05-26T16:30:33,42.805,6.029,CST-1368DR,5525,7709,14987,0.164,551
2021-05-26T16:33:35,42.805,6.029,CST-1368DR,5525,7709,14987,0.164,551
2021-05-26T16:36:37,42.805,6.029,CST-1368DR,5525,7710,14988,0.164,551
2021-05-26T16:39:38,42.805,6.029,CST-1368DR,5525,7710,14989,0.164,551
2021-05-26T16:42:40,42.805,6.029,CST-1368DR,5525,7710,14988,0.164,551
2021-05-26T16:45:41,42.805,6.029,CST-1368DR,5525,7710,14988,0.164,551
2021-05-26T16:48:43,42.805,6.029,CST-1368DR,5525,7710,14988,0.164,550
2021-05-26T16:51:44,42.805,6.029,CST-1368DR,5525,7709,14987,0.164,551